This is the latest recevied weather packets stored in our database for station/object EA7HQL-10. If no packets are shown the sender has not sent any weather packets the latest 10 day(s).
| Time | Temp. | Humidity | Pressure | Rain* | Wind** | Luminosity | Snow |
|---|---|---|---|---|---|---|---|
| 1777833003 | 20.56° C | 80% | 1010.3 hPa | 0 mm | - | - | - |
| 1777832710 | 20.56° C | 78% | 1010.2 hPa | 0 mm | - | - | - |
| 1777832443 | 21.11° C | 77% | 1010.1 hPa | 0 mm | - | - | - |
| 1777832158 | 21.11° C | 77% | 1010.3 hPa | 0 mm | - | - | - |
| 1777831893 | 20.56° C | 77% | 1010.2 hPa | 0 mm | - | - | - |
| 1777831628 | 20.56° C | 78% | 1010.2 hPa | 0 mm | - | - | - |
| 1777831333 | 20° C | 79% | 1010.1 hPa | 0 mm | - | - | - |
| 1777831053 | 20° C | 79% | 1010.2 hPa | 0 mm | - | - | - |
| 1777830798 | 20° C | 79% | 1010.3 hPa | 0 mm | - | - | - |
| 1777830529 | 20° C | 79% | 1010.4 hPa | 0 mm | - | - | - |
| 1777830283 | 20° C | 78% | 1010.4 hPa | 0 mm | - | - | - |
| 1777830043 | 20° C | 77% | 1010.3 hPa | 0 mm | - | - | - |
| 1777829798 | 20.56° C | 76% | 1010.4 hPa | 0 mm | - | - | - |
| 1777829558 | 20.56° C | 76% | 1010.2 hPa | 0 mm | - | - | - |
| 1777829273 | 20.56° C | 76% | 1010.3 hPa | 0 mm | - | - | - |
| 1777829018 | 20.56° C | 75% | 1010.6 hPa | 0 mm | - | - | - |
| 1777828748 | 20.56° C | 75% | 1010.4 hPa | 0 mm | - | - | - |
| 1777828468 | 20.56° C | 75% | 1010.4 hPa | 0 mm | - | - | - |
| 1777828190 | 20.56° C | 75% | 1010.6 hPa | 0 mm | - | - | - |
| 1777827928 | 21.11° C | 73% | 1010.6 hPa | 0 mm | - | - | - |
| 1777827638 | 20.56° C | 74% | 1010.6 hPa | 0 mm | - | - | - |
| 1777827383 | 20.56° C | 73% | 1010.7 hPa | 0 mm | - | - | - |
| 1777827123 | 20.56° C | 74% | 1010.4 hPa | 0 mm | - | - | - |
| 1777826828 | 21.11° C | 73% | 1010.8 hPa | 0 mm | - | - | - |
| 1777826583 | 21.67° C | 72% | 1010.7 hPa | 0 mm | - | - | - |
* Rain latest hour (hover to see other rain measurements)
** Current wind speed in m/s (hover to see current wind gust speed)